Location: Ahausen
(50.4985°N, 8.2722°E)
Time: 09:15:22
(UTC+00:00)

Meteor 1-24 Rocket - Pass Details

Date: 18 September 2020
Orbit: 790 x 927 km, 81.2° (Epoch: 25 October)

Event Time Altitude Azimuth Distance (km) Brightness Sun altitude
Rises 19:04:44 0° 353° (N) 3,339 7.2 -15.0°
Reaches altitude 10° 19:07:20 10° 2° (N) 2,420 6.3 -15.4°
Maximum altitude 19:12:18 34° 67° (ENE) 1,345 4.4 -16.1°
Enters shadow 19:14:22 26° 107° (ESE) 1,599 4.5 -16.4°
